Regional Weather Roundup
Issued by NWS Upton, NY

Current Version | Previous Version | Text Only | Print | Product List | Glossary Off
Versions: 1 2 3 4 5 6 7 8 9 10 11 12 13 14 15 16 17 18 19 20 21 22 23 24 25 26 27 28 29 30 31 32 33 34 35 36 37 38 39 40 41 42 43 44 45 46 47 48 49 50
000 ASUS41 KOKX 120804 RWROKX REGIONAL WEATHER ROUNDUP NATIONAL WEATHER SERVICE NEW YORK NY 300 AM EST FRI FEB 12 2016 NOTE: "FAIR" INDICATES FEW OR NO CLOUDS BELOW 12,000 FEET WITH NO SIGNIFICANT WEATHER AND/OR OBSTRUCTIONS TO VISIBILITY. NYZ071-072-176-178-NJZ106-104-120900- NEW YORK CITY METRO AREA CITY SKY/WX TMP DP RH WIND PRES REMARKS CENTRAL PARK CLEAR 17 -3 41 W8G22 30.24R WCI 7 LAGUARDIA APRT CLEAR 19 2 47 NW16G25 30.24R WCI 4 KENNEDY INTL CLEAR 18 -3 39 NW15G23 30.25R WCI 4 NEWARK/LIBERTY PTCLDY 17 -2 43 NW7G16 30.25R WCI 8 BRNX BOT. GARD N/A 18 0 45 W9 30.25S WCI 6 TETERBORO CLEAR 17 -2 43 W12G21 30.24R WCI 4 $$ NYZ177-179-078>081-120900- LONG ISLAND NEW YORK CITY SKY/WX TMP DP RH WIND PRES REMARKS FARMINGDALE CLEAR 17 -2 43 NW7 30.23R WCI 8 ISLIP CLEAR 16 0 49 W9 30.21R WCI 4 SHIRLEY CLEAR 16 0 49 NW10G20 30.21R WCI 4 RIVERHEAD N/A 19 -6 32 W8 30.18S WCI 9 WESTHAMPTON PTCLDY 14 0 53 W9 30.22R WCI 2 EAST HAMPTON FAIR 16 1 51 W9G23 30.19R WCI 5 MONTAUK POINT N/A 16 5 62 NW17G25 30.20R WCI 0 $$ NYZ052-065-067-120900- HUDSON VALLEY CITY SKY/WX TMP DP RH WIND PRES REMARKS WHITE PLAINS CLEAR 14 -1 51 W18G26 30.17S WCI -3 NEWBURGH CLEAR 12 3 67 W12 30.19R WCI -2 MONTGOMERY CLEAR 13 0 56 W12 30.19R WCI -1 POUGHKEEPSIE CLEAR 11 1 64 NE3 30.20R ALBANY PTCLDY 5 -5 63 W5 30.19R WCI -4 $$ NJZ001-105-106-008-010-013-015-019>022-104-120900- NEW JERSEY CITY SKY/WX TMP DP RH WIND PRES REMARKS NEWARK/LIBERTY PTCLDY 17 -2 43 NW7G16 30.25R WCI 8 TETERBORO CLEAR 17 -2 43 W12G21 30.24R WCI 4 CALDWELL CLEAR 16 -3 43 NW9 30.24R WCI 4 MORRISTOWN CLEAR 16 -4 41 W6 30.24R WCI 7 SOMERVILLE CLEAR 16 0 49 NW6 30.23S WCI 7 SUSSEX CLEAR 13 -2 51 VRB3 30.19S ANDOVER N/A 12 -2 53 CALM 30.21R TRENTON CLEAR 17 0 47 W5 30.26R WCI 10 MILLVILLE CLEAR 14 5 67 W7 30.30S WCI 4 ATLANTIC CITY CLEAR 18 2 49 W7 30.29S WCI 9 WRIGHTSTOWN CLEAR 17 0 46 W9 30.25R WCI 6 TOMS RIVER CLEAR 18 0 45 W8 30.27S WCI 7 BELMAR CLEAR 18 -2 41 NW14 30.24R WCI 4 $$ PAZ047>061-062-071-120900- EASTERN PENNSYLVANIA CITY SKY/WX TMP DP RH WIND PRES REMARKS PHILADELPHIA CLEAR 19 -3 38 W9 30.30R WCI 8 ALLENTOWN CLEAR 14 0 53 W8 30.24R WCI 3 SCRANTON PTCLDY 10 -2 58 W3 30.18R $$ CTZ002-004>006-009-010-012-RIZ004-006-007-MAZ004-011-015-120900- SOUTHERN NEW ENGLAND IN CT CITY SKY/WX TMP DP RH WIND PRES REMARKS BRADLEY INTL CLEAR 8 -4 58 W12 30.17R WCI -7 HARTFORD CLEAR 12 -3 51 NW8G20 30.21R WCI 0 DANBURY CLEAR 10 -1 61 E3 30.18R WTRBRY/OXFORD CLEAR 7 -8 51 CALM 30.15R BRIDGEPORT CLEAR 15 0 51 NW7 30.21R WCI 5 MERIDEN CLEAR 8 -2 63 CALM 30.20R NEW HAVEN CLEAR 13 1 59 NW12 30.20R WCI -1 CHESTER FAIR 10 1 67 W3 30.16S GROTON CLEAR 12 0 58 NW13G23 30.20R WCI -3 WILLIMANTIC CLEAR 9 -5 53 W6 30.17R WCI -1 IN RI CITY SKY/WX TMP DP RH WIND PRES REMARKS PROVIDENCE CLEAR 10 -7 46 W7 30.16R WCI -1 BLOCK ISLAND PTCLDY 16 3 57 NW17G29 30.14S WCI 0 WESTERLY CLEAR 12 -3 51 W7G17 30.18R WCI 1 IN MA CITY SKY/WX TMP DP RH WIND PRES REMARKS BOSTON CLEAR 8 -8 48 W16G23 30.12R WCI -10 WORCESTER CLEAR 2 -10 57 W14 30.03R WCI -16 WESTFIELD CLEAR 7 -6 55 NW9 30.15R WCI -7 PROVINCETOWN CLOUDY 14 4 64 NW30G37 30.08R WCI -7 NANTUCKET MOCLDY 16 1 51 NW23G35 30.09R WCI -2 $$ ANZ330-335-338-340-345-350-353-355-120900- COASTAL MARINE OBSERVATIONS STATION/POSITION TIME SKY/WX TEMP WIND PRES VSBY WAVE AIR SEA DIR/SP/G HT/PER (UTC) (F) (DEG/KT/KT) (MB) (MI) (FT/S) NY HARB ENTRANCE 0650 22 42 300/ 21/ 31 1023.4 4/ 5 4S FIRE IS NOT AVBL 20S FIRE ISLAND 0650 23 43 310/ 23/ 29 1022.4 6/ 6 GREAT SOUTH BAY NOT AVBL 23SW MTP 0750 21 45 310/ 21/ 27 1021.9 7/ 7 HUDSON CANYON 0650 27 48 1022.2 11/ 8 KINGS POINT 0700 19 35 350/ 17/ 21 1023.1 EXECUTION ROCKS NOT AVBL CENTRAL LI SOUND 0700 19 310/ 19/ 25 N/A 5/ 6 EASTERN LI SOUND 0700 19 41 290/ 21/ 29 N/A ROBBINS REEF 0700 18 310/ 19/ 22 1023.1 $$ >>>>>>>>>>>>>>>>>>>>>>>>>>>> KEY <<<<<<<<<<<<<<<<<<<<<<<<<<< > < > SKY/WX - SKY CONDITION/PRESENT WEATHER < > TMP - TEMPERATURE IN FAHRENHEIT < > DP - DEWPOINT IN FAHRENHEIT < > RH - RELATIVE HUMIDITY IN PERCENT < > WIND - DIRECTION AND SPEED IN MPH < > PRES - MEAN SEA LEVEL PRESSURE IN INCHES OF HG < > WCI - WIND CHILL INDEX < > VSB - VISIBILITY IN MILES < > HX - HEAT INDEX < > TC - TEMPERATURE IN CELSIUS < > VRB - VARIABLE WIND DIRECTION < > < >>>>>>>>>>>>>>>>>>>>>>>>>>>> KEY <<<<<<<<<<<<<<<<<<<<<<<<<<<

USA.gov is the U.S. government's official web portal to all federal, state and local government web resources and services.